| time (UTC) | temp C | wind direction | speed KPH | gust KPH | rain 1hr cm | rain 24hr cm | rain mn cm | humidity % | barometer mb |
| 20260503200206 | 18 | 260 | 0.0 | 1.6 | 0.00 | 0.00 | 0.00 | 43 | 1011.8 |
| 20260503195701 | 18 | 249 | 0.0 | 1.6 | 0.00 | 0.00 | 0.00 | 43 | 1011.8 |
| 20260503195157 | 19 | 191 | 0.0 | 0.0 | 0.00 | 0.00 | 0.00 | 42 | 1011.8 |
| 20260503194658 | 19 | 279 | 0.0 | 1.6 | 0.00 | 0.00 | 0.00 | 41 | 1011.8 |
| 20260503194201 | 19 | 315 | 0.0 | 3.2 | 0.00 | 0.00 | 0.00 | 41 | 1011.8 |
| 20260503193700 | 19 | 315 | 0.0 | 1.6 | 0.00 | 0.00 | 0.00 | 40 | 1011.8 |
| 20260503193158 | 20 | 242 | 0.0 | 1.6 | 0.00 | 0.00 | 0.00 | 39 | 1011.8 |
| 20260503192700 | 20 | 308 | 0.0 | 3.2 | 0.00 | 0.00 | 0.00 | 39 | 1011.8 |
| 20260503192158 | 20 | 286 | 0.0 | 1.6 | 0.00 | 0.00 | 0.00 | 38 | 1011.8 |
| 20260503191700 | 20 | 295 | 0.0 | 3.2 | 0.00 | 0.00 | 0.00 | 38 | 1011.8 |
| 20260503191204 | 20 | 280 | 1.6 | 3.2 | 0.00 | 0.00 | 0.00 | 37 | 1011.8 |
| 20260503190700 | 20 | 298 | 1.6 | 3.2 | 0.00 | 0.00 | 0.00 | 37 | 1011.4 |
| 20260503190157 | 20 | 302 | 0.0 | 3.2 | 0.00 | 0.00 | 0.00 | 36 | 1011.4 |
| 20260503185658 | 21 | 325 | 1.6 | 3.2 | 0.00 | 0.00 | 0.00 | 35 | 1011.4 |
| 20260503185201 | 21 | 301 | 0.0 | 1.6 | 0.00 | 0.00 | 0.00 | 36 | 1011.4 |
| 20260503184706 | 21 | 301 | 0.0 | 1.6 | 0.00 | 0.00 | 0.00 | 35 | 1011.4 |
| 20260503184200 | 21 | 274 | 0.0 | 1.6 | 0.00 | 0.00 | 0.00 | 35 | 1011.4 |
| 20260503183700 | 21 | 303 | 0.0 | 3.2 | 0.00 | 0.00 | 0.00 | 34 | 1011.4 |
| 20260503183157 | 21 | 318 | 0.0 | 3.2 | 0.00 | 0.00 | 0.00 | 34 | 1011.4 |
| 20260503182657 | 21 | 290 | 0.0 | 3.2 | 0.00 | 0.00 | 0.00 | 34 | 1011.4 |
| 20260503182201 | 21 | 270 | 0.0 | 3.2 | 0.00 | 0.00 | 0.00 | 33 | 1011.4 |
| 20260503181657 | 22 | 252 | 0.0 | 4.8 | 0.00 | 0.00 | 0.00 | 33 | 1011.1 |
| 20260503181157 | 22 | 305 | 1.6 | 8.0 | 0.00 | 0.00 | 0.00 | 32 | 1011.1 |
| 20260503180657 | 22 | 309 | 3.2 | 8.0 | 0.00 | 0.00 | 0.00 | 32 | 1011.1 |
| 20260503180200 | 22 | 310 | 1.6 | 8.0 | 0.00 | 0.00 | 0.00 | 31 | 1011.1 |
| 20260503175657 | 22 | 315 | 1.6 | 11.3 | 0.00 | 0.00 | 0.00 | 31 | 1011.1 |
| 20260503175201 | 22 | 312 | 1.6 | 8.0 | 0.00 | 0.00 | 0.00 | 31 | 1011.1 |
| 20260503174658 | 22 | 279 | 1.6 | 8.0 | 0.00 | 0.00 | 0.00 | 31 | 1011.1 |
| 20260503174158 | 22 | 321 | 1.6 | 9.7 | 0.00 | 0.00 | 0.00 | 31 | 1011.1 |
| 20260503173658 | 23 | 321 | 3.2 | 8.0 | 0.00 | 0.00 | 0.00 | 30 | 1011.1 |
| 20260503173157 | 23 | 312 | 3.2 | 9.7 | 0.00 | 0.00 | 0.00 | 29 | 1011.1 |
| 20260503172657 | 23 | 255 | 1.6 | 9.7 | 0.00 | 0.00 | 0.00 | 28 | 1011.1 |
| 20260503172203 | 23 | 299 | 1.6 | 9.7 | 0.00 | 0.00 | 0.00 | 28 | 1011.1 |
| 20260503171700 | 23 | 283 | 3.2 | 11.3 | 0.00 | 0.00 | 0.00 | 27 | 1011.1 |
| 20260503171201 | 23 | 293 | 4.8 | 11.3 | 0.00 | 0.00 | 0.00 | 27 | 1011.1 |
| 20260503170657 | 24 | 247 | 1.6 | 11.3 | 0.00 | 0.00 | 0.00 | 26 | 1011.1 |
| 20260503170157 | 24 | 277 | 1.6 | 12.9 | 0.00 | 0.00 | 0.00 | 27 | 1011.1 |
| 20260503160158 | 27 | 327 | 4.8 | 11.3 | 0.00 | 0.00 | 0.00 | 21 | 1010.8 |
| 20260503150704 | 27 | 186 | 4.8 | 16.1 | 0.00 | 0.00 | 0.00 | 16 | 1010.8 |
| 20260503150157 | 28 | 167 | 3.2 | 6.4 | 0.00 | 0.00 | 0.00 | 16 | 1010.8 |
| 20260503140157 | 27 | 195 | 3.2 | 12.9 | 0.00 | 0.00 | 0.00 | 17 | 1011.4 |
| 20260503131157 | 27 | 197 | 4.8 | 16.1 | 0.00 | 0.00 | 0.00 | 18 | 1012.1 |
| 20260503130657 | 27 | 184 | 9.7 | 16.1 | 0.00 | 0.00 | 0.00 | 17 | 1012.1 |
| 20260503130157 | 28 | 173 | 3.2 | 14.5 | 0.00 | 0.00 | 0.00 | 17 | 1012.1 |
| 20260503120200 | 27 | 194 | 8.0 | 12.9 | 0.00 | 0.00 | 0.00 | 18 | 1012.9 |
| 20260503110700 | 28 | 242 | 1.6 | 6.4 | 0.00 | 0.00 | 0.00 | 19 | 1013.5 |
| 20260503110157 | 27 | 238 | 1.6 | 9.7 | 0.00 | 0.00 | 0.00 | 19 | 1013.5 |
| 20260503100157 | 24 | 135 | 4.8 | 11.3 | 0.00 | 0.00 | 0.00 | 25 | 1014.2 |
| 20260503090158 | 22 | 174 | 4.8 | 14.5 | 0.00 | 0.00 | 0.00 | 27 | 1015.0 |
| 20260503081201 | 20 | 174 | 4.8 | 12.9 | 0.00 | 0.00 | 0.00 | 29 | 1015.3 |
| 20260503080700 | 21 | 159 | 6.4 | 11.3 | 0.00 | 0.00 | 0.00 | 28 | 1015.3 |
| 20260503080158 | 20 | 151 | 4.8 | 14.5 | 0.00 | 0.00 | 0.00 | 28 | 1015.3 |
| 20260503072704 | 18 | 139 | 8.0 | 16.1 | 0.00 | 0.00 | 0.00 | 31 | 1015.3 |
| 20260503072157 | 18 | 169 | 9.7 | 17.7 | 0.00 | 0.00 | 0.00 | 30 | 1015.3 |
| 20260503071704 | 18 | 172 | 8.0 | 19.3 | 0.00 | 0.00 | 0.00 | 30 | 1015.3 |
| 20260503071200 | 18 | 130 | 8.0 | 19.3 | 0.00 | 0.00 | 0.00 | 29 | 1015.3 |
| 20260503070704 | 18 | 150 | 4.8 | 16.1 | 0.00 | 0.00 | 0.00 | 30 | 1015.3 |
| 20260503070200 | 18 | 118 | 3.2 | 4.8 | 0.00 | 0.00 | 0.00 | 33 | 1015.3 |
| 20260503060157 | 15 | 332 | 0.0 | 1.6 | 0.00 | 0.00 | 0.00 | 42 | 1015.3 |
| 20260503054703 | 14 | 121 | 0.0 | 1.6 | 0.00 | 0.00 | 0.00 | 45 | 1015.3 |
| 20260503054200 | 13 | 129 | 0.0 | 3.2 | 0.00 | 0.00 | 0.00 | 46 | 1015.3 |
| 20260503053700 | 13 | 57 | 0.0 | 3.2 | 0.00 | 0.00 | 0.00 | 46 | 1015.0 |
| 20260503053200 | 12 | 64 | 0.0 | 4.8 | 0.00 | 0.00 | 0.00 | 49 | 1015.0 |
| 20260503052657 | 12 | 100 | 1.6 | 6.4 | 0.00 | 0.00 | 0.00 | 50 | 1015.0 |
| 20260503052206 | 12 | 105 | 1.6 | 6.4 | 0.00 | 0.00 | 0.00 | 51 | 1015.0 |
| 20260503051700 | 11 | 127 | 1.6 | 6.4 | 0.00 | 0.00 | 0.00 | 52 | 1015.0 |
| 20260503051157 | 11 | 98 | 3.2 | 4.8 | 0.00 | 0.00 | 0.00 | 54 | 1015.3 |
| 20260503050658 | 11 | 107 | 0.0 | 4.8 | 0.00 | 0.00 | 0.00 | 56 | 1015.3 |
| 20260503050157 | 10 | 102 | 1.6 | 3.2 | 0.00 | 0.00 | 0.00 | 58 | 1015.3 |
| 20260503045700 | 10 | 77 | 0.0 | 4.8 | 0.00 | 0.00 | 0.00 | 59 | 1015.3 |
| 20260503045204 | 9 | 124 | 1.6 | 6.4 | 0.00 | 0.00 | 0.00 | 59 | 1015.0 |
| 20260503044703 | 9 | 125 | 1.6 | 6.4 | 0.00 | 0.00 | 0.00 | 60 | 1015.3 |
| 20260503044157 | 9 | 120 | 1.6 | 4.8 | 0.00 | 0.00 | 0.00 | 60 | 1015.3 |
| 20260503043703 | 9 | 128 | 1.6 | 4.8 | 0.00 | 0.00 | 0.00 | 60 | 1015.3 |
| 20260503043157 | 9 | 83 | 3.2 | 8.0 | 0.00 | 0.00 | 0.00 | 60 | 1015.3 |
| 20260503042700 | 9 | 90 | 3.2 | 8.0 | 0.00 | 0.00 | 0.00 | 60 | 1015.3 |
| 20260503042158 | 9 | 81 | 1.6 | 6.4 | 0.00 | 0.00 | 0.00 | 60 | 1015.3 |
| 20260503041657 | 9 | 102 | 3.2 | 6.4 | 0.00 | 0.00 | 0.00 | 60 | 1015.3 |
| 20260503041204 | 9 | 89 | 1.6 | 6.4 | 0.00 | 0.00 | 0.00 | 60 | 1015.3 |
| 20260503040700 | 9 | 108 | 3.2 | 6.4 | 0.00 | 0.00 | 0.00 | 60 | 1015.3 |
| 20260503040157 | 9 | 90 | 3.2 | 6.4 | 0.00 | 0.00 | 0.00 | 60 | 1015.3 |
| 20260503035657 | 9 | 84 | 3.2 | 6.4 | 0.00 | 0.00 | 0.00 | 60 | 1015.3 |
| 20260503035203 | 9 | 140 | 1.6 | 4.8 | 0.00 | 0.00 | 0.00 | 60 | 1015.3 |
| 20260503034700 | 9 | 65 | 1.6 | 4.8 | 0.00 | 0.00 | 0.00 | 60 | 1015.3 |
| 20260503034206 | 9 | 71 | 3.2 | 4.8 | 0.00 | 0.00 | 0.00 | 60 | 1015.3 |
| 20260503033706 | 9 | 76 | 1.6 | 3.2 | 0.00 | 0.00 | 0.00 | 60 | 1015.3 |
| 20260503033157 | 9 | 114 | 0.0 | 6.4 | 0.00 | 0.00 | 0.00 | 60 | 1015.3 |
| 20260503032703 | 9 | 105 | 3.2 | 6.4 | 0.00 | 0.00 | 0.00 | 60 | 1015.3 |
| 20260503032203 | 9 | 66 | 3.2 | 4.8 | 0.00 | 0.00 | 0.00 | 60 | 1015.3 |
| 20260503031657 | 10 | 99 | 1.6 | 6.4 | 0.00 | 0.00 | 0.00 | 59 | 1015.3 |
| 20260503031157 | 10 | 78 | 1.6 | 4.8 | 0.00 | 0.00 | 0.00 | 59 | 1015.3 |
| 20260503030706 | 10 | 93 | 1.6 | 3.2 | 0.00 | 0.00 | 0.00 | 59 | 1015.3 |
| 20260503030158 | 10 | 119 | 0.0 | 3.2 | 0.00 | 0.00 | 0.00 | 59 | 1015.3 |
| 20260503025700 | 10 | 111 | 1.6 | 3.2 | 0.00 | 0.00 | 0.00 | 59 | 1015.3 |
| 20260503025200 | 10 | 59 | 0.0 | 3.2 | 0.00 | 0.00 | 0.00 | 58 | 1015.3 |
| 20260503024700 | 10 | 173 | 0.0 | 3.2 | 0.00 | 0.00 | 0.00 | 58 | 1015.3 |
| 20260503024201 | 10 | 136 | 0.0 | 4.8 | 0.00 | 0.00 | 0.00 | 58 | 1015.3 |
| 20260503023700 | 10 | 105 | 1.6 | 4.8 | 0.00 | 0.00 | 0.00 | 58 | 1015.3 |
| 20260503023200 | 10 | 78 | 1.6 | 4.8 | 0.00 | 0.00 | 0.00 | 57 | 1015.6 |
| 20260503022657 | 10 | 88 | 1.6 | 4.8 | 0.00 | 0.00 | 0.00 | 57 | 1015.6 |
| 20260503022158 | 10 | 85 | 1.6 | 4.8 | 0.00 | 0.00 | 0.00 | 57 | 1015.6 |
| 20260503021657 | 10 | 83 | 1.6 | 4.8 | 0.00 | 0.00 | 0.00 | 57 | 1015.6 |
| 20260503021157 | 10 | 83 | 3.2 | 4.8 | 0.00 | 0.00 | 0.00 | 57 | 1015.6 |
| 20260503020658 | 10 | 94 | 1.6 | 4.8 | 0.00 | 0.00 | 0.00 | 57 | 1015.6 |
| 20260503020200 | 10 | 88 | 1.6 | 6.4 | 0.00 | 0.00 | 0.00 | 57 | 1015.6 |
| 20260503015701 | 10 | 86 | 3.2 | 6.4 | 0.00 | 0.00 | 0.00 | 56 | 1015.6 |
| 20260503015200 | 10 | 85 | 3.2 | 6.4 | 0.00 | 0.00 | 0.00 | 56 | 1015.6 |
| 20260503014700 | 10 | 103 | 1.6 | 4.8 | 0.00 | 0.00 | 0.00 | 55 | 1015.6 |
| 20260503014200 | 10 | 117 | 1.6 | 3.2 | 0.00 | 0.00 | 0.00 | 55 | 1015.6 |
| 20260503013657 | 10 | 106 | 1.6 | 3.2 | 0.00 | 0.00 | 0.00 | 55 | 1015.6 |
| 20260503013157 | 11 | 174 | 0.0 | 3.2 | 0.00 | 0.00 | 0.00 | 55 | 1015.6 |
| 20260503012657 | 11 | 113 | 0.0 | 1.6 | 0.00 | 0.00 | 0.00 | 55 | 1015.6 |
| 20260503012157 | 11 | 29 | 0.0 | 3.2 | 0.00 | 0.00 | 0.00 | 54 | 1015.6 |
| 20260503011657 | 11 | 52 | 1.6 | 3.2 | 0.00 | 0.00 | 0.00 | 54 | 1015.6 |
| 20260503011157 | 11 | 68 | 1.6 | 3.2 | 0.00 | 0.00 | 0.00 | 55 | 1015.6 |
| 20260503010703 | 11 | 98 | 0.0 | 3.2 | 0.00 | 0.00 | 0.00 | 55 | 1015.6 |
| 20260503010157 | 11 | 92 | 1.6 | 3.2 | 0.00 | 0.00 | 0.00 | 54 | 1015.6 |
| 20260503005657 | 11 | 123 | 0.0 | 3.2 | 0.00 | 0.00 | 0.00 | 54 | 1015.6 |
| 20260503005157 | 11 | 76 | 1.6 | 4.8 | 0.00 | 0.00 | 0.00 | 54 | 1015.6 |
| 20260503004657 | 11 | 88 | 1.6 | 6.4 | 0.00 | 0.00 | 0.00 | 54 | 1015.6 |
| 20260503004157 | 11 | 85 | 1.6 | 6.4 | 0.00 | 0.00 | 0.00 | 54 | 1015.6 |
| 20260503003657 | 11 | 98 | 1.6 | 6.4 | 0.00 | 0.00 | 0.00 | 54 | 1015.6 |
| 20260503003203 | 11 | 117 | 3.2 | 6.4 | 0.00 | 0.00 | 0.00 | 53 | 1015.6 |
| 20260503002657 | 11 | 109 | 1.6 | 4.8 | 0.00 | 0.00 | 0.00 | 53 | 1015.6 |
| 20260503002203 | 11 | 140 | 0.0 | 6.4 | 0.00 | 0.00 | 0.00 | 53 | 1015.6 |
| 20260503001704 | 11 | 96 | 3.2 | 6.4 | 0.00 | 0.00 | 0.00 | 53 | 1015.6 |
| 20260503001157 | 11 | 96 | 1.6 | 6.4 | 0.00 | 0.00 | 0.00 | 52 | 1015.6 |
| 20260503000704 | 11 | 85 | 3.2 | 6.4 | 0.00 | 0.00 | 0.00 | 52 | 1015.6 |
| 20260503000157 | 11 | 118 | 1.6 | 6.4 | 0.00 | 0.00 | 0.00 | 52 | 1016.0 |
| 20260502235700 | 11 | 116 | 1.6 | 4.8 | 0.00 | 0.00 | 0.00 | 52 | 1016.0 |
| 20260502235203 | 11 | 98 | 0.0 | 4.8 | 0.00 | 0.00 | 0.00 | 52 | 1016.0 |
| 20260502234657 | 11 | 137 | 1.6 | 6.4 | 0.00 | 0.00 | 0.00 | 51 | 1016.0 |
| 20260502234201 | 12 | 94 | 3.2 | 6.4 | 0.00 | 0.00 | 0.00 | 51 | 1016.0 |
| 20260502233658 | 12 | 122 | 1.6 | 6.4 | 0.00 | 0.00 | 0.00 | 51 | 1016.0 |
| 20260502233157 | 12 | 118 | 3.2 | 8.0 | 0.00 | 0.00 | 0.00 | 51 | 1016.0 |
| 20260502232703 | 12 | 104 | 3.2 | 8.0 | 0.00 | 0.00 | 0.00 | 51 | 1016.0 |
| 20260502232157 | 12 | 83 | 1.6 | 4.8 | 0.00 | 0.00 | 0.00 | 50 | 1016.0 |
| 20260502231657 | 12 | 133 | 1.6 | 6.4 | 0.00 | 0.00 | 0.00 | 50 | 1016.0 |
| 20260502231200 | 12 | 136 | 1.6 | 4.8 | 0.00 | 0.00 | 0.00 | 50 | 1016.0 |
| 20260502230700 | 12 | 81 | 1.6 | 6.4 | 0.00 | 0.00 | 0.00 | 50 | 1016.0 |
| 20260502230200 | 12 | 93 | 3.2 | 6.4 | 0.00 | 0.00 | 0.00 | 50 | 1016.0 |
| 20260502225657 | 12 | 90 | 3.2 | 6.4 | 0.00 | 0.00 | 0.00 | 50 | 1016.0 |
| 20260502225203 | 12 | 83 | 3.2 | 6.4 | 0.00 | 0.00 | 0.00 | 49 | 1016.3 |
| 20260502224657 | 12 | 89 | 1.6 | 4.8 | 0.00 | 0.00 | 0.00 | 49 | 1016.3 |
| 20260502224200 | 12 | 112 | 1.6 | 4.8 | 0.00 | 0.00 | 0.00 | 49 | 1016.3 |
| 20260502223703 | 12 | 98 | 1.6 | 6.4 | 0.00 | 0.00 | 0.00 | 49 | 1016.3 |
| 20260502223158 | 12 | 92 | 3.2 | 6.4 | 0.00 | 0.00 | 0.00 | 48 | 1016.3 |
| 20260502222706 | 13 | 74 | 0.0 | 3.2 | 0.00 | 0.00 | 0.00 | 48 | 1016.3 |
| 20260502222157 | 13 | 171 | 1.6 | 6.4 | 0.00 | 0.00 | 0.00 | 48 | 1016.3 |
| 20260502221700 | 13 | 86 | 3.2 | 8.0 | 0.00 | 0.00 | 0.00 | 47 | 1016.3 |
| 20260502221200 | 13 | 80 | 1.6 | 8.0 | 0.00 | 0.00 | 0.00 | 46 | 1016.3 |
| 20260502220700 | 13 | 76 | 3.2 | 4.8 | 0.00 | 0.00 | 0.00 | 45 | 1016.3 |
| 20260502220200 | 13 | 82 | 3.2 | 4.8 | 0.00 | 0.00 | 0.00 | 44 | 1016.3 |
| 20260502215700 | 14 | 146 | 1.6 | 3.2 | 0.00 | 0.00 | 0.00 | 45 | 1016.3 |
| 20260502215157 | 14 | 120 | 1.6 | 6.4 | 0.00 | 0.00 | 0.00 | 45 | 1016.3 |
| 20260502214658 | 14 | 110 | 1.6 | 3.2 | 0.00 | 0.00 | 0.00 | 44 | 1016.3 |
| 20260502214200 | 14 | 159 | 1.6 | 4.8 | 0.00 | 0.00 | 0.00 | 44 | 1016.3 |
| 20260502213657 | 14 | 97 | 1.6 | 4.8 | 0.00 | 0.00 | 0.00 | 44 | 1016.3 |
| 20260502213157 | 15 | 94 | 1.6 | 4.8 | 0.00 | 0.00 | 0.00 | 44 | 1016.3 |
| 20260502212700 | 15 | 117 | 0.0 | 3.2 | 0.00 | 0.00 | 0.00 | 43 | 1016.3 |
| 20260502212203 | 15 | 146 | 1.6 | 3.2 | 0.00 | 0.00 | 0.00 | 43 | 1016.3 |
| 20260502211657 | 15 | 177 | 0.0 | 3.2 | 0.00 | 0.00 | 0.00 | 42 | 1016.3 |
| 20260502211200 | 15 | 106 | 0.0 | 3.2 | 0.00 | 0.00 | 0.00 | 42 | 1016.3 |
| 20260502210657 | 15 | 133 | 0.0 | 1.6 | 0.00 | 0.00 | 0.00 | 42 | 1016.3 |
| 20260502210200 | 15 | 176 | 1.6 | 4.8 | 0.00 | 0.00 | 0.00 | 42 | 1016.3 |
| 20260502205703 | 15 | 128 | 1.6 | 6.4 | 0.00 | 0.00 | 0.00 | 41 | 1016.3 |
| 20260502205200 | 16 | 150 | 1.6 | 4.8 | 0.00 | 0.00 | 0.00 | 41 | 1016.3 |
| 20260502204657 | 16 | 93 | 1.6 | 4.8 | 0.00 | 0.00 | 0.00 | 41 | 1016.3 |
| 20260502204201 | 16 | 127 | 1.6 | 4.8 | 0.00 | 0.00 | 0.00 | 40 | 1016.3 |
| 20260502203700 | 16 | 112 | 1.6 | 6.4 | 0.00 | 0.00 | 0.00 | 40 | 1016.7 |
| 20260502203200 | 16 | 90 | 3.2 | 6.4 | 0.00 | 0.00 | 0.00 | 40 | 1016.7 |
| 20260502202700 | 17 | 93 | 0.0 | 3.2 | 0.00 | 0.00 | 0.00 | 40 | 1016.7 |
| 20260502202157 | 17 | 75 | 1.6 | 3.2 | 0.00 | 0.00 | 0.00 | 39 | 1016.7 |
| 20260502201658 | 17 | 82 | 1.6 | 3.2 | 0.00 | 0.00 | 0.00 | 38 | 1016.7 |
| 20260502201157 | 17 | 103 | 0.0 | 3.2 | 0.00 | 0.00 | 0.00 | 38 | 1016.7 |
| 20260502200700 | 17 | 81 | 0.0 | 4.8 | 0.00 | 0.00 | 0.00 | 38 | 1016.7 |